Location: El Abasto
(10.3790°N, 67.5897°W)
Time: 19:41:03
(UTC+00:00)

Cosmos 2173 Rocket - Pass Details

Date: 19 May 2024
Orbit: 943 x 1000 km, 83.0° (Epoch: 12 June)

Event Time Altitude Azimuth Distance (km) Brightness Sun altitude
Rises 23:19:04 0° 356° (N) 3,627 7.4 -8.4°
Reaches altitude 10° 23:21:34 10° 357° (N) 2,675 6.7 -9.0°
Maximum altitude 23:27:41 89° 92° (E) 950 4.0 -10.4°
Drops below altitude 10° 23:33:45 10° 177° (S) 2,655 6.0 -11.8°
Sets 23:36:14 0° 177° (S) 3,599 6.7 -12.3°
